Snowfall_Accumulation
0.0 0.0 0.0 0.0 0.0 0.0 0.0 0.0 0.0 0.0 0.0 0.0 0.0 0.0 0.0 0.0 0.0 0.0 0.0 0.0 0.0 0.0
0.0 0.0 0.0 0.0 0.0 0.0 0.0 0.0 0.0 0.0 0.0 0.0 0.0 0.0 0.0 0.0 0.0 0.0 0.0 0.0 0.0 0.0
0.0 0.0 0.0 0.0 0.0 0.0 0.0 0.0 0.0 0.0 0.0 0.0 0.0 0.0 0.0 0.0 0.0 0.0 0.0 0.0 0.0 0.0
0.0 0.0 0.0 0.0 0.0 0.0 0.0 0.0 0.0 0.0 0.0 0.0 0.0 0.0 0.0 0.0 0.0 0.5 0.5 0.0 0.0 0.0
0.0 0.0 0.0 0.0 0.0 0.0 0.0 0.0 0.0 0.0 0.0 0.0 0.0 0.0 0.0 0.0 0.7 0.8 0.0 0.0 0.0 0.0
0.0 0.0 0.0 0.0 0.0 0.0 0.0 0.0 0.0 0.0 0.0 0.0 0.0 0.0 0.0 0.0 0.0 0.0 0.0 0.0 0.0 0.0
0.0 0.0 0.0 0.0 0.0 0.0 0.0 0.0 0.0 0.0 0.0 0.0 0.0 0.0 0.0 0.0 0.0 0.0 0.0 0.0 0.0 0.0
0.0 0.0 0.2 0.7 0.9 0.8 0.7 0.0 0.0 0.0 0.3 0.0 0.0 0.0 0.0 0.0 1.0 0.7 0.0 0.0 0.0 0.0
1.4 1.7 1.8 1.7 1.3 0.9 0.8 0.8 0.8 0.8 0.8 0.7 0.0 nan nan 0.1 0.9 1.1 0.0 0.1 0.0 0.0
2.2 2.0 1.6 1.3 1.2 0.9 0.9 1.0 0.8 0.8 0.8 0.8 0.7 nan nan nan 1.1 1.1 0.1 0.0 0.0 0.0
1.6 2.8 1.6 1.3 1.4 1.0 0.9 1.1 0.9 1.1 1.0 0.8 0.7 nan nan nan 1.0 0.9 0.0 0.0 0.0 0.1
2.2 3.1 1.7 3.8 1.8 1.4 2.3 1.8 2.9 3.0 4.3 3.5 3.4 nan nan 2.0 3.0 2.1 1.6 0.1 0.1 0.1
2.1 4.5 3.6 2.2 3.2 3.7 3.5 3.3 4.1 3.8 3.4 0.9 4.8 nan nan nan 7.8 7.1 4.5 2.5 0.1 0.0
2.2 4.8 3.1 3.6 3.0 4.3 4.7 2.6 4.4 4.1 3.3 3.7 2.0 2.4 nan nan 4.7 6.8 8.2 6.8 4.3 2.2
Water_Equivalent
0.00 0.00 0.00 0.00 0.00 0.00 0.00 0.00 0.00 0.00 0.00 0.00 0.00 0.00 0.00 0.00 0.00 0.00 0.00 0.00 0.00 0.00
0.00 0.00 0.00 0.00 0.00 0.00 0.00 0.00 0.00 0.00 0.00 0.00 0.00 0.00 0.00 0.00 0.00 0.00 0.00 0.00 0.00 0.00
0.00 0.00 0.00 0.00 0.00 0.00 0.00 0.00 0.00 0.00 0.00 0.00 0.00 0.00 0.00 0.00 0.00 0.00 0.00 0.00 0.00 0.00
0.00 0.00 0.00 0.00 0.00 0.00 0.00 0.00 0.00 0.00 0.00 0.00 0.00 0.00 0.00 0.00 0.00 0.05 0.05 0.00 0.00 0.00
0.00 0.00 0.00 0.00 0.00 0.00 0.00 0.00 0.00 0.00 0.00 0.00 0.00 0.00 0.00 0.00 0.07 0.08 0.00 0.00 0.00 0.00
0.00 0.00 0.00 0.00 0.00 0.00 0.00 0.00 0.00 0.00 0.00 0.00 0.00 0.00 0.00 0.00 0.00 0.00 0.00 0.00 0.00 0.00
0.00 0.00 0.00 0.00 0.00 0.00 0.00 0.00 0.00 0.00 0.00 0.00 0.00 0.00 0.00 0.00 0.00 0.00 0.00 0.00 0.00 0.00
0.00 0.00 0.02 0.07 0.09 0.08 0.07 0.00 0.00 0.00 0.03 0.00 0.00 0.00 0.00 0.00 0.10 0.07 0.00 0.00 0.00 0.00
0.14 0.17 0.18 0.17 0.13 0.09 0.08 0.08 0.08 0.08 0.08 0.08 0.00 nan nan 0.01 0.09 0.10 0.00 0.01 0.00 0.00
0.22 0.20 0.16 0.13 0.12 0.09 0.09 0.10 0.08 0.08 0.08 0.08 0.07 nan nan nan 0.11 0.11 0.01 0.00 0.00 0.00
0.16 0.28 0.16 0.13 0.14 0.10 0.09 0.11 0.09 0.11 0.10 0.08 0.07 nan nan nan 0.09 0.09 0.00 0.00 0.00 0.01
0.22 0.31 0.17 0.37 0.17 0.13 0.23 0.17 0.28 0.30 0.43 0.35 0.34 nan nan 0.20 0.30 0.21 0.16 0.01 0.01 0.01
0.21 0.44 0.35 0.21 0.31 0.36 0.35 0.33 0.41 0.38 0.34 0.11 0.48 nan nan nan 0.79 0.72 0.46 0.25 0.01 0.01
0.21 0.47 0.30 0.35 0.30 0.42 0.46 0.26 0.43 0.40 0.32 0.37 0.21 0.24 nan nan 0.47 0.68 0.82 0.69 0.43 0.22
SL_Ratio
nan nan nan nan nan nan nan nan nan nan nan nan nan nan nan nan nan nan nan nan nan nan
nan nan nan nan nan nan nan nan nan nan nan nan nan nan nan nan nan nan nan nan nan nan
nan nan nan nan nan nan nan nan nan nan nan nan nan nan nan nan nan nan nan nan nan nan
nan nan nan nan nan nan nan nan nan nan nan nan nan nan nan nan nan 10.0 10.0 5.0 8.8 5.0
nan nan nan nan nan nan nan nan nan nan nan nan nan nan nan 10.0 10.0 10.0 10.0 nan 15.0 9.0
nan nan nan nan nan nan nan nan nan nan nan nan nan nan nan nan nan nan nan nan 12.5 11.3
nan nan nan nan nan nan nan nan nan nan nan nan nan nan nan nan nan nan nan nan nan 15.0
nan nan 8.8 9.3 9.5 10.0 10.0 nan nan nan 9.9 nan nan nan nan 15.0 10.0 10.1 11.5 11.3 9.0 10.0
9.8 10.0 10.0 10.0 10.0 10.0 10.0 10.0 10.0 10.0 10.0 9.9 nan nan nan 11.8 10.4 10.1 11.7 11.5 11.3 12.5
9.9 9.9 10.0 10.0 10.0 10.0 10.0 10.0 10.0 10.0 10.0 10.0 10.0 nan nan nan 10.1 10.1 11.4 10.8 10.9 10.0
10.0 9.9 10.0 10.0 10.0 10.2 10.3 10.3 10.2 10.1 10.1 10.1 10.0 nan nan nan 10.1 10.2 10.6 10.6 10.0 9.7
10.0 10.0 10.2 10.1 10.6 10.8 10.3 10.4 10.1 10.0 9.9 9.9 9.9 nan nan 10.0 10.0 10.1 10.0 9.6 9.6 9.6
10.2 10.1 10.3 10.5 10.4 10.1 10.0 10.0 10.0 10.0 10.0 8.1 9.9 nan nan nan 9.9 9.9 9.9 10.0 9.5 3.3
10.5 10.2 10.3 10.2 10.1 10.1 10.2 10.3 10.1 10.1 10.1 10.0 9.4 9.8 nan nan 9.9 10.0 10.0 10.0 9.9 9.9